^^
No Wait Weather (KNEBELLE1) Station Historical Data
Daily Summary for May 3, 2019 Units:  English    Metric   Both
Daily Weekly Monthly Yearly Custom
  High: Low: Average:
Temperature: 66.4 °F 46.1 °F 54.7 °F
Dew Point: 50.71 °F 38.12 °F 43.9 °F
Humidity: 88% 40% 69%
Wind Speed: 4mph 0mph 0.1mph
Wind Gust: 9mph - -
Wind- - SW
Pressure: 29.95 in 29.80 in -
Precipitation: 0.01 in    
Historical Graphs
 
 
Tabular Data for May 3, 2019
Time Temperature Dew Point Pressure Wind Wind Speed Wind Gust Humidity Rainfall Rate (Hourly) solar
00:04 49.8 °F 38.12 °F 29.94 in Calm     64% 0 in WeatherCatV3.04B91 W/m2
00:09 49.8 °F 38.12 °F 29.94 in Calm     64% 0 in WeatherCatV3.04B91 W/m2
00:14 49.6 °F 38.32 °F 29.94 in Calm     65% 0 in WeatherCatV3.04B91 W/m2
00:19 49.4 °F 38.13 °F 29.94 in Calm     65% 0 in WeatherCatV3.04B91 W/m2
00:24 49.2 °F 38.33 °F 29.94 in Calm     66% 0 in WeatherCatV3.04B91 W/m2
00:29 49.1 °F 38.24 °F 29.94 in Calm     66% 0 in WeatherCatV3.04B91 W/m2
00:34 48.9 °F 38.43 °F 29.94 in Calm     67% 0 in WeatherCatV3.04B91 W/m2
00:39 48.9 °F 38.43 °F 29.94 in Calm     67% 0 in WeatherCatV3.04B91 W/m2
00:44 48.9 °F 38.43 °F 29.94 in Calm     67% 0 in WeatherCatV3.04B91 W/m2
00:49 48.8 °F 38.71 °F 29.94 in Calm     68% 0 in WeatherCatV3.04B91 W/m2
00:54 48.8 °F 39.09 °F 29.94 in Calm     69% 0 in WeatherCatV3.04B91 W/m2
00:59 48.8 °F 39.09 °F 29.94 in Calm     69% 0 in WeatherCatV3.04B91 W/m2
01:04 48.8 °F 39.09 °F 29.94 in Calm     69% 0 in WeatherCatV3.04B91 W/m2
01:09 48.6 °F 39.26 °F 29.94 in Calm     70% 0 in WeatherCatV3.04B91 W/m2
01:14 48.5 °F 39.17 °F 29.94 in Calm     70% 0 in WeatherCatV3.04B91 W/m2
01:19 48.5 °F 39.53 °F 29.94 in Calm     71% 0 in WeatherCatV3.04B91 W/m2
01:24 48.6 °F 39.63 °F 29.94 in Calm     71% 0 in WeatherCatV3.04B91 W/m2
01:29 48.6 °F 39.63 °F 29.94 in Calm     71% 0 in WeatherCatV3.04B91 W/m2
01:34 48.6 °F 39.99 °F 29.94 in Calm     72% 0 in WeatherCatV3.04B91 W/m2
01:39 48.6 °F 39.99 °F 29.94 in Calm     72% 0 in WeatherCatV3.04B91 W/m2
01:44 48.6 °F 40.34 °F 29.94 in Calm     73% 0 in WeatherCatV3.04B91 W/m2
01:49 48.6 °F 40.34 °F 29.95 in Calm     73% 0 in WeatherCatV3.04B91 W/m2
01:54 48.5 °F 40.6 °F 29.95 in Calm     74% 0 in WeatherCatV3.04B91 W/m2
01:59 48.3 °F 40.4 °F 29.95 in Calm     74% 0 in WeatherCatV3.04B91 W/m2
02:04 48.2 °F 40.31 °F 29.94 in Calm     74% 0 in WeatherCatV3.04B91 W/m2
02:09 48 °F 40.46 °F 29.94 in Calm     75% 0 in WeatherCatV3.04B91 W/m2
02:14 47.9 °F 40.36 °F 29.94 in Calm     75% 0 in WeatherCatV3.04B91 W/m2
02:19 47.7 °F 40.51 °F 29.93 in Calm     76% 0 in WeatherCatV3.04B91 W/m2
02:24 47.6 °F 40.41 °F 29.93 in Calm     76% 0 in WeatherCatV3.04B91 W/m2
02:29 47.4 °F 40.22 °F 29.93 in Calm     76% 0 in WeatherCatV3.04B91 W/m2
02:34 47.3 °F 40.12 °F 29.93 in Calm     76% 0 in WeatherCatV3.04B91 W/m2
02:39 47.1 °F 40.27 °F 29.93 in Calm     77% 0 in WeatherCatV3.04B91 W/m2
02:44 47.1 °F 40.27 °F 29.93 in Calm     77% 0 in WeatherCatV3.04B91 W/m2
02:49 47.3 °F 40.46 °F 29.93 in Calm     77% 0 in WeatherCatV3.04B91 W/m2
02:54 47.1 °F 40.27 °F 29.93 in Calm     77% 0 in WeatherCatV3.04B91 W/m2
02:59 47 °F 40.17 °F 29.93 in Calm     77% 0 in WeatherCatV3.04B91 W/m2
03:04 47 °F 40.5 °F 29.92 in Calm     78% 0 in WeatherCatV3.04B91 W/m2
03:09 46.8 °F 40.31 °F 29.92 in Calm     78% 0 in WeatherCatV3.04B91 W/m2
03:14 46.7 °F 40.21 °F 29.92 in Calm     78% 0 in WeatherCatV3.04B91 W/m2
03:19 46.5 °F 40.34 °F 29.92 in Calm     79% 0 in WeatherCatV3.04B91 W/m2
03:24 46.5 °F 40.34 °F 29.92 in Calm     79% 0 in WeatherCatV3.04B91 W/m2
03:29 46.4 °F 40.57 °F 29.92 in Calm     80% 0 in WeatherCatV3.04B91 W/m2
03:34 46.4 °F 40.57 °F 29.92 in Calm     80% 0 in WeatherCatV3.04B91 W/m2
03:39 46.5 °F 40.67 °F 29.92 in Calm     80% 0 in WeatherCatV3.04B91 W/m2
03:44 46.5 °F 40.67 °F 29.92 in Calm     80% 0 in WeatherCatV3.04B91 W/m2
03:49 46.4 °F 40.57 °F 29.91 in Calm     80% 0 in WeatherCatV3.04B91 W/m2
03:54 46.4 °F 40.89 °F 29.91 in Calm     81% 0 in WeatherCatV3.04B91 W/m2
03:59 46.4 °F 40.89 °F 29.91 in Calm     81% 0 in WeatherCatV3.04B91 W/m2
04:04 46.2 °F 40.7 °F 29.92 in Calm     81% 0 in WeatherCatV3.04B91 W/m2
04:09 46.1 °F 40.6 °F 29.92 in Calm     81% 0 in WeatherCatV3.04B91 W/m2
04:14 46.1 °F 40.91 °F 29.92 in Calm     82% 0 in WeatherCatV3.04B91 W/m2
04:19 46.1 °F 40.91 °F 29.92 in Calm     82% 0 in WeatherCatV3.04B91 W/m2
04:24 46.1 °F 40.91 °F 29.92 in Calm     82% 0 in WeatherCatV3.04B91 W/m2
04:29 46.1 °F 41.23 °F 29.92 in Calm     83% 0 in WeatherCatV3.04B91 W/m2
04:34 46.2 °F 41.33 °F 29.92 in Calm     83% 0 in WeatherCatV3.04B91 W/m2
04:39 46.2 °F 41.33 °F 29.92 in Calm     83% 0 in WeatherCatV3.04B91 W/m2
04:44 46.4 °F 41.52 °F 29.92 in Calm     83% 0 in WeatherCatV3.04B91 W/m2
04:49 46.4 °F 41.52 °F 29.92 in Calm     83% 0 in WeatherCatV3.04B91 W/m2
04:54 46.5 °F 41.62 °F 29.92 in Calm     83% 0 in WeatherCatV3.04B91 W/m2
04:59 46.4 °F 41.52 °F 29.92 in Calm     83% 0 in WeatherCatV3.04B91 W/m2
05:04 46.4 °F 41.52 °F 29.92 in Calm     83% 0 in WeatherCatV3.04B91 W/m2
05:09 46.5 °F 41.62 °F 29.92 in Calm     83% 0 in WeatherCatV3.04B91 W/m2
05:14 46.5 °F 41.93 °F 29.92 in Calm     84% 0 in WeatherCatV3.04B91 W/m2
05:19 46.7 °F 42.13 °F 29.92 in Calm     84% 0 in WeatherCatV3.04B91 W/m2
05:24 46.8 °F 42.22 °F 29.92 in Calm     84% 0 in WeatherCatV3.04B91 W/m2
05:29 46.8 °F 42.22 °F 29.92 in Calm     84% 0 in WeatherCatV3.04B91 W/m2
05:34 46.8 °F 42.22 °F 29.92 in Calm     84% 0 in WeatherCatV3.04B91 W/m2
05:39 46.8 °F 42.22 °F 29.92 in Calm     84% 0 in WeatherCatV3.04B91 W/m2
05:44 46.8 °F 42.53 °F 29.92 in Calm     85% 0 in WeatherCatV3.04B91 W/m2
05:49 46.8 °F 42.53 °F 29.92 in Calm     85% 0 in WeatherCatV3.04B91 W/m2
05:54 46.8 °F 42.53 °F 29.92 in Calm     85% 0 in WeatherCatV3.04B91 W/m2
05:59 46.7 °F 42.43 °F 29.92 in Calm     85% 0 in WeatherCatV3.04B91 W/m2
06:04 46.8 °F 42.84 °F 29.93 in Calm     86% 0 in WeatherCatV3.04B91 W/m2
06:09 46.8 °F 42.84 °F 29.93 in Calm     86% 0 in WeatherCatV3.04B91 W/m2
06:14 46.8 °F 42.84 °F 29.93 in Calm     86% 0 in WeatherCatV3.04B91 W/m2
06:19 46.8 °F 42.84 °F 29.92 in Calm     86% 0 in WeatherCatV3.04B91 W/m2
06:24 46.8 °F 42.84 °F 29.92 in Calm     86% 0 in WeatherCatV3.04B91 W/m2
06:29 46.8 °F 42.84 °F 29.92 in Calm     86% 0 in WeatherCatV3.04B91 W/m2
06:34 46.8 °F 42.84 °F 29.92 in Calm     86% 0 in WeatherCatV3.04B91 W/m2
06:39 46.8 °F 43.14 °F 29.92 in Calm     87% 0 in WeatherCatV3.04B91 W/m2
06:44 46.8 °F 43.14 °F 29.92 in Calm     87% 0 in WeatherCatV3.04B91 W/m2
06:49 46.8 °F 43.14 °F 29.91 in Calm     87% 0 in WeatherCatV3.04B91 W/m2
06:54 47 °F 43.33 °F 29.91 in Calm     87% 0 in WeatherCatV3.04B91 W/m2
06:59 47.1 °F 43.43 °F 29.91 in Calm     87% 0 in WeatherCatV3.04B91 W/m2
07:04 47.3 °F 43.63 °F 29.91 in Calm     87% 0 in WeatherCatV3.04B91 W/m2
07:09 47.6 °F 44.22 °F 29.91 in Calm     88% 0 in WeatherCatV3.04B91 W/m2
07:14 47.7 °F 44.32 °F 29.91 in Calm     88% 0 in WeatherCatV3.04B91 W/m2
07:19 48 °F 44.62 °F 29.90 in Calm     88% 0 in WeatherCatV3.04B91 W/m2
07:24 48 °F 44.62 °F 29.90 in Calm     88% 0 in WeatherCatV3.04B91 W/m2
07:29 48.2 °F 44.81 °F 29.90 in Calm     88% 0 in WeatherCatV3.04B91 W/m2
07:34 48.2 °F 44.81 °F 29.90 in Calm     88% 0 in WeatherCatV3.04B91 W/m2
07:39 48.3 °F 44.91 °F 29.90 in Calm     88% 0 in WeatherCatV3.04B91 W/m2
07:44 48.5 °F 45.11 °F 29.90 in Calm     88% 0 in WeatherCatV3.04B91 W/m2
07:49 48.5 °F 45.11 °F 29.90 in Calm     88% 0 in WeatherCatV3.04B91 W/m2
07:54 48.6 °F 45.21 °F 29.90 in Calm     88% 0 in WeatherCatV3.04B91 W/m2
07:59 48.8 °F 45.4 °F 29.89 in Calm     88% 0 in WeatherCatV3.04B91 W/m2
08:04 48.8 °F 45.4 °F 29.89 in Calm     88% 0 in WeatherCatV3.04B91 W/m2
08:09 48.9 °F 45.5 °F 29.89 in Calm     88% 0 in WeatherCatV3.04B91 W/m2
08:14 49.1 °F 45.7 °F 29.89 in Calm     88% 0 in WeatherCatV3.04B91 W/m2
08:19 49.2 °F 45.8 °F 29.90 in Calm     88% 0 in WeatherCatV3.04B91 W/m2
08:24 49.4 °F 46 °F 29.90 in Calm     88% 0 in WeatherCatV3.04B91 W/m2
08:29 49.6 °F 46.19 °F 29.90 in Calm   1 mph 88% 0 in WeatherCatV3.04B91 W/m2
08:34 49.9 °F 46.49 °F 29.90 in Calm     88% 0 in WeatherCatV3.04B91 W/m2
08:39 50.2 °F 46.48 °F 29.90 in Calm     87% 0 in WeatherCatV3.04B91 W/m2
08:44 50.4 °F 46.68 °F 29.90 in Calm     87% 0 in WeatherCatV3.04B91 W/m2
08:49 50.5 °F 46.78 °F 29.90 in Calm     87% 0 in WeatherCatV3.04B91 W/m2
08:54 50.7 °F 46.97 °F 29.90 in Calm     87% 0 in WeatherCatV3.04B91 W/m2
08:59 50.7 °F 46.97 °F 29.90 in Calm     87% 0 in WeatherCatV3.04B91 W/m2
09:04 50.8 °F 46.76 °F 29.91 in Calm     86% 0 in WeatherCatV3.04B91 W/m2
09:09 51 °F 46.96 °F 29.91 in Calm     86% 0 in WeatherCatV3.04B91 W/m2
09:14 51.1 °F 47.06 °F 29.91 in Calm     86% 0 in WeatherCatV3.04B91 W/m2
09:19 51.4 °F 47.35 °F 29.92 in Calm     86% 0 in WeatherCatV3.04B91 W/m2
09:24 51.6 °F 47.55 °F 29.92 in Calm     86% 0 in WeatherCatV3.04B91 W/m2
09:29 51.7 °F 47.65 °F 29.92 in Calm     86% 0 in WeatherCatV3.04B91 W/m2
09:34 51.9 °F 47.84 °F 29.92 in Calm     86% 0 in WeatherCatV3.04B91 W/m2
09:39 51.9 °F 47.84 °F 29.92 in Calm     86% 0 in WeatherCatV3.04B91 W/m2
09:44 51.9 °F 47.84 °F 29.92 in Calm     86% 0 in WeatherCatV3.04B91 W/m2
09:49 52 °F 47.94 °F 29.93 in Calm     86% 0 in WeatherCatV3.04B91 W/m2
09:54 52 °F 47.94 °F 29.93 in Calm     86% 0 in WeatherCatV3.04B91 W/m2
09:59 52.2 °F 48.14 °F 29.93 in Calm     86% 0 in WeatherCatV3.04B91 W/m2
10:04 52.3 °F 48.55 °F 29.93 in Calm     87% 0 in WeatherCatV3.04B91 W/m2
10:09 52.5 °F 48.74 °F 29.93 in Calm     87% 0 in WeatherCatV3.04B91 W/m2
10:14 52.5 °F 48.74 °F 29.93 in Calm     87% 0 in WeatherCatV3.04B91 W/m2
10:19 52.5 °F 48.74 °F 29.93 in Calm     87% 0 in WeatherCatV3.04B91 W/m2
10:24 52.5 °F 48.74 °F 29.93 in Calm     87% 0 in WeatherCatV3.04B91 W/m2
10:29 52.5 °F 48.74 °F 29.93 in Calm     87% 0 in WeatherCatV3.04B91 W/m2
10:34 52.6 °F 48.84 °F 29.93 in Calm     87% 0 in WeatherCatV3.04B91 W/m2
10:39 52.6 °F 48.84 °F 29.93 in Calm     87% 0 in WeatherCatV3.04B91 W/m2
10:44 52.6 °F 48.84 °F 29.93 in Calm     87% 0 in WeatherCatV3.04B91 W/m2
10:49 52.8 °F 49.04 °F 29.93 in Calm   1 mph 87% 0 in WeatherCatV3.04B91 W/m2
10:54 52.8 °F 49.04 °F 29.93 in Calm     87% 0 in WeatherCatV3.04B91 W/m2
10:59 53.2 °F 49.43 °F 29.93 in Calm     87% 0 in WeatherCatV3.04B91 W/m2
11:04 53.8 °F 50.02 °F 29.92 in Calm     87% 0 in WeatherCatV3.04B91 W/m2
11:09 54.5 °F 50.71 °F 29.92 in Calm   3 mph 87% 0 in WeatherCatV3.04B91 W/m2
11:14 54.8 °F 50.69 °F 29.92 in Calm     86% 0 in WeatherCatV3.04B91 W/m2
11:19 54.7 °F 49.96 °F 29.93 in Calm     84% 0 in WeatherCatV3.04B91 W/m2
11:24 54.7 °F 49.96 °F 29.93 in Calm     84% 0 in WeatherCatV3.04B91 W/m2
11:29 54.5 °F 49.12 °F 29.93 in Calm     82% 0 in WeatherCatV3.04B91 W/m2
11:34 54.5 °F 49.12 °F 29.94 in Calm     82% 0 in WeatherCatV3.04B91 W/m2
11:39 54.5 °F 49.12 °F 29.94 in Calm     82% 0 in WeatherCatV3.04B91 W/m2
11:44 54.5 °F 49.12 °F 29.94 in Calm     82% 0 in WeatherCatV3.04B91 W/m2
11:49 54.5 °F 49.12 °F 29.94 in Calm     82% 0 in WeatherCatV3.04B91 W/m2
11:54 54.7 °F 48.98 °F 29.94 in Calm     81% 0 in WeatherCatV3.04B91 W/m2
11:59 54.8 °F 49.08 °F 29.94 in Calm     81% 0 in WeatherCatV3.04B91 W/m2
12:04 55.3 °F 49.23 °F 29.94 in Calm     80% 0 in WeatherCatV3.04B91 W/m2
12:09 55.7 °F 48.95 °F 29.94 in Calm     78% 0 in WeatherCatV3.04B91 W/m2
12:14 56.2 °F 49.08 °F 29.94 in Calm     77% 0 in WeatherCatV3.04B91 W/m2
12:19 56.7 °F 49.22 °F 29.94 in Calm     76% 0 in WeatherCatV3.04B91 W/m2
12:24 57.2 °F 49.35 °F 29.94 in Calm   1 mph 75% 0 in WeatherCatV3.04B91 W/m2
12:29 57.2 °F 48.99 °F 29.94 in Calm   1 mph 74% 0 in WeatherCatV3.04B91 W/m2
12:34 57.5 °F 48.54 °F 29.93 in Calm     72% 0 in WeatherCatV3.04B91 W/m2
12:39 58.1 °F 49.49 °F 29.93 in Calm     73% 0 in WeatherCatV3.04B91 W/m2
12:44 58.4 °F 49.03 °F 29.93 in Calm   1 mph 71% 0 in WeatherCatV3.04B91 W/m2
12:49 58.9 °F 49.13 °F 29.93 in Calm     70% 0 in WeatherCatV3.04B91 W/m2
12:54 59.3 °F 49.13 °F 29.93 in Calm     69% 0 in WeatherCatV3.04B91 W/m2
12:59 59.5 °F 48.93 °F 29.93 in Calm     68% 0 in WeatherCatV3.04B91 W/m2
13:04 59.8 °F 49.21 °F 29.92 in Calm     68% 0 in WeatherCatV3.04B91 W/m2
13:09 60.1 °F 49.1 °F 29.92 in Calm     67% 0 in WeatherCatV3.04B91 W/m2
13:14 60.4 °F 48.99 °F 29.92 in Calm     66% 0 in WeatherCatV3.04B91 W/m2
13:19 60.7 °F 49.27 °F 29.92 in Calm   1 mph 66% 0 in WeatherCatV3.04B91 W/m2
13:24 61.2 °F 48.92 °F 29.92 in Calm     64% 0 in WeatherCatV3.04B91 W/m2
13:29 61.2 °F 47.64 °F 29.92 in Calm   3 mph 61% 0 in WeatherCatV3.04B91 W/m2
13:34 61.2 °F 46.3 °F 29.92 in Calm   1 mph 58% 0 in WeatherCatV3.04B91 W/m2
13:39 61.5 °F 46.58 °F 29.92 in Calm   1 mph 58% 0 in WeatherCatV3.04B91 W/m2
13:44 61.6 °F 47.13 °F 29.92 in Calm     59% 0 in WeatherCatV3.04B91 W/m2
13:49 61.5 °F 45.18 °F 29.90 in Calm   2 mph 55% 0 in WeatherCatV3.04B91 W/m2
13:54 62 °F 46.12 °F 29.90 in Calm   5 mph 56% 0 in WeatherCatV3.04B91 W/m2
13:59 62.1 °F 44.76 °F 29.90 in Calm     53% 0 in WeatherCatV3.04B91 W/m2
14:04 62.4 °F 44.03 °F 29.90 in Calm   6 mph 51% 0 in WeatherCatV3.04B91 W/m2
14:09 62.9 °F 43.44 °F 29.90 in SW 1 mph 6 mph 49% 0 in WeatherCatV3.04B91 W/m2
14:14 63.4 °F 43.36 °F 29.90 in Calm   4 mph 48% 0 in WeatherCatV3.04B91 W/m2
14:19 63.9 °F 44.89 °F 29.90 in SW 1 mph 3 mph 50% 0 in WeatherCatV3.04B91 W/m2
14:24 64.2 °F 42.41 °F 29.90 in Calm   3 mph 45% 0 in WeatherCatV3.04B91 W/m2
14:29 64.5 °F 44.91 °F 29.90 in Calm   3 mph 49% 0 in WeatherCatV3.04B91 W/m2
14:34 64.3 °F 44.73 °F 29.88 in Calm   3 mph 49% 0 in WeatherCatV3.04B91 W/m2
14:39 64.5 °F 44.37 °F 29.88 in Calm   2 mph 48% 0 in WeatherCatV3.04B91 W/m2
14:44 63.9 °F 44.89 °F 29.88 in Calm   1 mph 50% 0 in WeatherCatV3.04B91 W/m2
14:49 63.9 °F 44.89 °F 29.88 in Calm     50% 0 in WeatherCatV3.04B91 W/m2
14:54 64.2 °F 45.69 °F 29.88 in Calm   5 mph 51% 0 in WeatherCatV3.04B91 W/m2
14:59 64.5 °F 44.91 °F 29.88 in Calm   1 mph 49% 0 in WeatherCatV3.04B91 W/m2
15:04 64.7 °F 45.63 °F 29.88 in Calm   1 mph 50% 0 in WeatherCatV3.04B91 W/m2
15:09 64.5 °F 46.48 °F 29.88 in SW 1 mph 7 mph 52% 0 in WeatherCatV3.04B91 W/m2
15:14 64 °F 46.02 °F 29.88 in Calm   5 mph 52% 0 in WeatherCatV3.04B91 W/m2
15:19 64.5 °F 45.44 °F 29.88 in Calm     50% 0 in WeatherCatV3.04B91 W/m2
15:24 65 °F 45.37 °F 29.88 in Calm   4 mph 49% 0 in WeatherCatV3.04B91 W/m2
15:29 65.5 °F 46.36 °F 29.88 in Calm     50% 0 in WeatherCatV3.04B91 W/m2
15:34 65.3 °F 44.55 °F 29.87 in Calm   3 mph 47% 0 in WeatherCatV3.04B91 W/m2
15:39 64.8 °F 43.53 °F 29.87 in Calm     46% 0 in WeatherCatV3.04B91 W/m2
15:44 65 °F 44.27 °F 29.87 in Calm   3 mph 47% 0 in WeatherCatV3.04B91 W/m2
15:49 65.6 °F 44.82 °F 29.86 in SW 4 mph 9 mph 47% 0 in WeatherCatV3.04B91 W/m2
15:54 65.8 °F 43.86 °F 29.86 in Calm   3 mph 45% 0 in WeatherCatV3.04B91 W/m2
15:59 66 °F 44.62 °F 29.86 in SSW 1 mph 1 mph 46% 0 in WeatherCatV3.04B91 W/m2
16:04 66.4 °F 43.82 °F 29.85 in Calm   7 mph 44% 0 in WeatherCatV3.04B91 W/m2
16:09 66.3 °F 43.73 °F 29.85 in SW 1 mph 3 mph 44% 0 in WeatherCatV3.04B91 W/m2
16:14 66.4 °F 43.82 °F 29.85 in Calm   2 mph 44% 0 in WeatherCatV3.04B91 W/m2
16:19 66.3 °F 43.73 °F 29.85 in Calm   2 mph 44% 0 in WeatherCatV3.04B91 W/m2
16:24 65.2 °F 42.13 °F 29.85 in Calm   3 mph 43% 0 in WeatherCatV3.04B91 W/m2
16:29 64.7 °F 42.28 °F 29.85 in Calm   1 mph 44% 0 in WeatherCatV3.04B91 W/m2
16:34 64.3 °F 41.92 °F 29.84 in Calm     44% 0 in WeatherCatV3.04B91 W/m2
16:39 63.9 °F 41.55 °F 29.84 in Calm     44% 0 in WeatherCatV3.04B91 W/m2
16:44 63.4 °F 42.25 °F 29.84 in Calm   1 mph 46% 0 in WeatherCatV3.04B91 W/m2
16:49 63.7 °F 42.53 °F 29.84 in Calm     46% 0 in WeatherCatV3.04B91 W/m2
16:54 64.3 °F 43.63 °F 29.84 in Calm     47% 0 in WeatherCatV3.04B91 W/m2
16:59 64.5 °F 43.25 °F 29.84 in Calm   2 mph 46% 0 in WeatherCatV3.04B91 W/m2
17:04 64.5 °F 43.25 °F 29.82 in Calm   2 mph 46% 0 in WeatherCatV3.04B91 W/m2
17:09 64.7 °F 42.28 °F 29.82 in SSW 2 mph 3 mph 44% 0 in WeatherCatV3.04B91 W/m2
17:14 64.7 °F 42.28 °F 29.82 in Calm   3 mph 44% 0 in WeatherCatV3.04B91 W/m2
17:19 64.5 °F 42.1 °F 29.82 in Calm   3 mph 44% 0 in WeatherCatV3.04B91 W/m2
17:24 64.3 °F 41.32 °F 29.82 in SW 2 mph 5 mph 43% 0 in WeatherCatV3.04B91 W/m2
17:29 64.3 °F 41.92 °F 29.82 in Calm     44% 0 in WeatherCatV3.04B91 W/m2
17:34 64.2 °F 40 °F 29.82 in Calm     41% 0 in WeatherCatV3.04B91 W/m2
17:39 64.3 °F 41.92 °F 29.82 in Calm   2 mph 44% 0 in WeatherCatV3.04B91 W/m2
17:44 64.2 °F 40.62 °F 29.82 in Calm   5 mph 42% 0 in WeatherCatV3.04B91 W/m2
17:49 64.2 °F 40 °F 29.82 in SSW 3 mph 3 mph 41% 0 in WeatherCatV3.04B91 W/m2
17:54 64.2 °F 40.62 °F 29.82 in Calm   3 mph 42% 0 in WeatherCatV3.04B91 W/m2
17:59 64.2 °F 40.62 °F 29.82 in Calm   1 mph 42% 0 in WeatherCatV3.04B91 W/m2
18:04 64 °F 39.82 °F 29.82 in Calm     41% 0 in WeatherCatV3.04B91 W/m2
18:09 64 °F 39.82 °F 29.82 in Calm   2 mph 41% 0 in WeatherCatV3.04B91 W/m2
18:14 63.9 °F 39.1 °F 29.82 in Calm     40% 0 in WeatherCatV3.04B91 W/m2
18:19 63.9 °F 39.73 °F 29.82 in Calm     41% 0 in WeatherCatV3.04B91 W/m2
18:24 63.7 °F 40.78 °F 29.82 in Calm   2 mph 43% 0 in WeatherCatV3.04B91 W/m2
18:29 63.7 °F 40.78 °F 29.82 in Calm   2 mph 43% 0 in WeatherCatV3.04B91 W/m2
18:34 63.5 °F 40.6 °F 29.82 in Calm     43% 0 in WeatherCatV3.04B91 W/m2
18:39 63.5 °F 41.19 °F 29.82 in Calm     44% 0 in WeatherCatV3.04B91 W/m2
18:44 63.5 °F 41.77 °F 29.82 in Calm     45% 0 in WeatherCatV3.04B91 W/m2
18:49 63.4 °F 41.68 °F 29.82 in Calm   4 mph 45% 0 in WeatherCatV3.04B91 W/m2
18:54 63.1 °F 41.41 °F 29.82 in Calm   1 mph 45% 0 in WeatherCatV3.04B91 W/m2
18:59 62.9 °F 41.23 °F 29.82 in Calm     45% 0 in WeatherCatV3.04B91 W/m2
19:04 62.6 °F 40.96 °F 29.82 in Calm     45% 0 in WeatherCatV3.04B91 W/m2
19:09 62.6 °F 40.96 °F 29.82 in Calm     45% 0 in WeatherCatV3.04B91 W/m2
19:14 62.4 °F 41.9 °F 29.82 in SW 4 mph 5 mph 47% 0 in WeatherCatV3.04B91 W/m2
19:19 62.3 °F 41.25 °F 29.81 in Calm     46% 0 in WeatherCatV3.04B91 W/m2
19:24 62.1 °F 41.63 °F 29.81 in Calm     47% 0 in WeatherCatV3.04B91 W/m2
19:29 62 °F 41.54 °F 29.81 in Calm     47% 0 in WeatherCatV3.04B91 W/m2
19:34 61.6 °F 41.17 °F 29.82 in Calm   1 mph 47% 0 in WeatherCatV3.04B91 W/m2
19:39 61.5 °F 41.62 °F 29.82 in Calm     48% 0 in WeatherCatV3.04B91 W/m2
19:44 61.3 °F 41.98 °F 29.82 in Calm   1 mph 49% 0 in WeatherCatV3.04B91 W/m2
19:49 61 °F 42.22 °F 29.82 in SW 1 mph 2 mph 50% 0 in WeatherCatV3.04B91 W/m2
19:54 60.9 °F 42.65 °F 29.82 in Calm   2 mph 51% 0 in WeatherCatV3.04B91 W/m2
19:59 60.5 °F 42.78 °F 29.82 in Calm   1 mph 52% 0 in WeatherCatV3.04B91 W/m2
20:04 60.2 °F 43.49 °F 29.81 in Calm     54% 0 in WeatherCatV3.04B91 W/m2
20:09 59.9 °F 43.69 °F 29.81 in Calm   1 mph 55% 0 in WeatherCatV3.04B91 W/m2
20:14 59.6 °F 43.41 °F 29.81 in SW 1 mph 2 mph 55% 0 in WeatherCatV3.04B91 W/m2
20:19 59.5 °F 43.79 °F 29.80 in Calm     56% 0 in WeatherCatV3.04B91 W/m2
20:24 59.2 °F 43.97 °F 29.80 in Calm     57% 0 in WeatherCatV3.04B91 W/m2
20:29 58.9 °F 44.15 °F 29.80 in Calm     58% 0 in WeatherCatV3.04B91 W/m2
20:34 58.6 °F 44.31 °F 29.82 in Calm     59% 0 in WeatherCatV3.04B91 W/m2
20:39 58.3 °F 44.47 °F 29.82 in Calm     60% 0 in WeatherCatV3.04B91 W/m2
20:44 58 °F 44.63 °F 29.82 in Calm     61% 0 in WeatherCatV3.04B91 W/m2
20:49 57.6 °F 44.25 °F 29.82 in Calm     61% 0 in WeatherCatV3.04B91 W/m2
20:54 57.3 °F 44.39 °F 29.82 in Calm     62% 0 in WeatherCatV3.04B91 W/m2
20:59 57.2 °F 44.3 °F 29.82 in Calm     62% 0 in WeatherCatV3.04B91 W/m2
21:04 56.9 °F 44.43 °F 29.82 in Calm     63% 0 in WeatherCatV3.04B91 W/m2
21:09 56.7 °F 44.66 °F 29.82 in Calm     64% 0 in WeatherCatV3.04B91 W/m2
21:14 56.5 °F 44.88 °F 29.82 in Calm     65% 0 in WeatherCatV3.04B91 W/m2
21:19 56.3 °F 44.69 °F 29.83 in Calm     65% 0 in WeatherCatV3.04B91 W/m2
21:24 56.2 °F 44.99 °F 29.83 in Calm     66% 0 in WeatherCatV3.04B91 W/m2
21:29 55.9 °F 44.71 °F 29.83 in Calm     66% 0 in WeatherCatV3.04B91 W/m2
21:34 55.7 °F 44.52 °F 29.84 in Calm     66% 0 in WeatherCatV3.04B91 W/m2
21:39 55.6 °F 44.82 °F 29.84 in Calm     67% 0 in WeatherCatV3.04B91 W/m2
21:44 55.3 °F 44.53 °F 29.84 in Calm     67% 0 in WeatherCatV3.04B91 W/m2
21:49 55.1 °F 44.73 °F 29.85 in Calm     68% 0 in WeatherCatV3.04B91 W/m2
21:54 54.8 °F 44.83 °F 29.85 in Calm     69% 0 in WeatherCatV3.04B91 W/m2
21:59 54.5 °F 44.92 °F 29.85 in Calm     70% 0 in WeatherCatV3.04B91 W/m2
22:04 54.4 °F 44.82 °F 29.85 in Calm     70% 0 in WeatherCatV3.04B91 W/m2
22:09 54.4 °F 44.82 °F 29.85 in Calm     70% 0 in WeatherCatV3.04B91 W/m2
22:14 54.4 °F 44.82 °F 29.85 in Calm     70% 0 in WeatherCatV3.04B91 W/m2
22:19 54.2 °F 44.63 °F 29.86 in Calm     70% 0 in WeatherCatV3.04B91 W/m2
22:24 54.2 °F 44.63 °F 29.86 in Calm     70% 0 in WeatherCatV3.04B91 W/m2
22:29 54.2 °F 44.63 °F 29.86 in Calm     70% 0 in WeatherCatV3.04B91 W/m2
22:34 54.1 °F 44.53 °F 29.86 in Calm     70% 0 in WeatherCatV3.04B91 W/m2
22:39 54.1 °F 44.53 °F 29.86 in Calm     70% 0 in WeatherCatV3.04B91 W/m2
22:44 54.1 °F 44.91 °F 29.86 in Calm     71% 0 in WeatherCatV3.04B91 W/m2
22:49 54.2 °F 45 °F 29.86 in Calm     71% 0 in WeatherCatV3.04B91 W/m2
22:54 54.2 °F 45 °F 29.86 in Calm     71% 0 in WeatherCatV3.04B91 W/m2
22:59 54.2 °F 45.37 °F 29.86 in Calm     72% 0 in WeatherCatV3.04B91 W/m2
23:04 54.2 °F 45.37 °F 29.86 in Calm     72% 0 in WeatherCatV3.04B91 W/m2
23:09 54.2 °F 45.37 °F 29.86 in Calm     72% 0 in WeatherCatV3.04B91 W/m2
23:14 54.1 °F 45.64 °F 29.86 in Calm     73% 0 in WeatherCatV3.04B91 W/m2
23:19 54.1 °F 45.64 °F 29.86 in Calm     73% 0 in WeatherCatV3.04B91 W/m2
23:24 53.9 °F 45.45 °F 29.86 in Calm     73% 0 in WeatherCatV3.04B91 W/m2
23:29 53.9 °F 45.8 °F 29.86 in Calm     74% 0 in WeatherCatV3.04B91 W/m2
23:34 53.9 °F 45.8 °F 29.86 in Calm     74% 0 in WeatherCatV3.04B91 W/m2
23:39 53.9 °F 46.16 °F 29.86 in Calm     75% 0 in WeatherCatV3.04B91 W/m2
23:44 53.9 °F 46.16 °F 29.86 in Calm   1 mph 75% 0 in WeatherCatV3.04B91 W/m2
23:49 53.9 °F 45.8 °F 29.85 in Calm     74% 0 in WeatherCatV3.04B91 W/m2
23:54 53.9 °F 45.8 °F 29.85 in Calm     74% 0 in WeatherCatV3.04B91 W/m2
23:59 54.1 °F 46 °F 29.85 in Calm     74% 0 in WeatherCatV3.04B91 W/m2
Bellevue, Nebraska, USA
Compliments of Weather Underground - 3.25 mb